Find Starlink 32040

NORAD ID: 60109 Int'l Des: 2024-117 Owner: SPXS Country: US Constellation: starlink operational
LEOCIRCULAR

当前视图

正在加载3D地球...

About Starlink 32040

Starlink 32040 (NORAD 60109) is a starlink constellation satellite (v2 mini) launched Jun 23, 2024 by SPXS of US. It operates in LEO, CIRCULAR orbit with a mass of 730.00 kg.

即将过境

Passes for default location (London). Set your location on the main map for personalized predictions.

高度历史

Loading altitude history...

两行轨道根数

1 60109U 24117U 26265.08455570 .00002790 00000-0 93641-4 0 9991
2 60109 53.1596 202.1805 0001515 58.5957 301.5193 15.34410642126995
Epoch: Sep 22, 2026 • Age: 9 hours

当前状态

高度 474.5 km
远地点 / 近地点 N/A
速度 7.63 km/s
星下点 -35.91°S, 1.67°W
发射日期 Jun 23, 2024
运行时间 2.2 years
类型 internet

技术详情

分类 Payload
质量 730.00 kg
干质量 700.00 kg
长度 0.30 m
跨度 29.00 m
形状 ? Box + pan
制造商 SPXS
平台类型 Starlink V2M
阶段状态 In Orbit
所有者/国家 SPXS/US

Most Searched